Temp
58 58 59 59 59 59 59 59 59 59 60 60 60 60 60 60 61 68 61 63 66 66 65 72 72 72 73 68 69 70 60 57 56 56 60 66 62 71 73 69 72 73 73 76 79
58 58 58 58 58 58 59 59 59 59 60 60 60 60 60 60 65 62 64 66 66 65 70 68 66 69 68 65 67 64 59 57 61 63 61 64 64 65 65 67 68 71 76 78 78
57 57 58 57 58 58 59 59 59 59 59 60 60 59 59 61 62 59 64 65 66 67 70 69 69 67 62 65 63 61 58 60 62 63 63 62 62 66 63 61 66 63 68 72 73
57 57 57 57 57 58 58 58 58 59 59 60 60 59 59 62 52 63 63 64 65 69 69 66 65 61 60 58 62 56 60 60 61 61 59 59 64 61 64 64 67 68 69 70 69
56 56 56 56 57 57 57 58 58 58 60 60 60 59 61 61 56 68 63 66 70 68 64 63 61 60 57 59 59 57 59 60 62 60 60 62 59 60 62 67 67 68 67 65 65
56 56 56 56 57 57 57 57 58 59 59 59 59 58 61 55 65 68 66 66 67 67 64 64 61 62 58 57 56 58 57 59 60 60 61 56 59 58 63 63 64 64 64 65 64
55 55 55 56 56 56 56 57 58 59 59 59 59 63 62 55 67 68 67 64 66 65 61 63 64 60 59 55 58 57 52 59 60 59 58 58 54 55 60 61 62 62 63 63 63
55 55 55 55 56 56 56 57 57 58 59 59 58 63 54 65 70 66 67 65 67 67 64 64 65 60 57 58 55 52 53 50 58 57 58 56 50 58 57 58 59 60 61 60 61
55 55 55 55 55 55 56 56 57 58 59 59 61 60 52 64 61 64 66 61 63 64 64 65 62 56 55 51 50 51 47 50 53 56 55 54 51 58 57 56 57 58 58 58 58
55 54 55 55 55 55 55 57 57 58 61 63 63 56 56 54 59 62 66 63 59 59 57 57 56 52 52 50 42 47 47 49 48 53 53 51 51 59 59 53 55 56 56 56 55
54 54 54 54 54 55 56 59 55 54 58 50 51 52 54 59 62 59 62 60 59 56 50 52 48 46 53 53 51 48 46 46 52 56 46 49 51 56 60 53 53 54 53 53 53
54 54 54 54 54 53 58 57 49 52 47 53 53 54 57 58 51 55 62 53 52 48 49 47 45 51 49 48 45 46 44 45 50 53 46 48 48 55 58 53 52 51 51 50 51
54 54 54 53 53 55 55 50 53 53 52 47 52 52 53 56 51 52 56 53 50 47 47 45 47 48 45 45 42 44 42 43 44 48 50 46 44 50 57 51 49 49 49 49 49
54 53 53 53 51 54 50 51 53 54 46 42 46 49 53 54 48 56 57 53 48 45 46 46 49 44 43 42 46 38 49 46 42 40 35 45 32 47 52 45 46 47 48 49 49
53 53 51 51 53 52 51 53 54 51 31 44 45 56 53 49 49 49 56 52 45 46 44 43 42 41 40 44 47 42 46 43 43 39 39 41 33 45 49 44 45 47 47 47 48
53 52 51 53 54 51 53 53 51 37 31 34 45 43 44 46 46 49 50 54 50 44 45 45 48 45 46 47 46 46 43 42 41 38 26 37 38 39 46 45 50 48 47 47 47
53 51 51 53 49 52 53 50 35 31 37 33 37 42 43 41 42 44 43 42 41 34 37 42 42 46 46 42 44 42 39 28 25 24 25 37 34 41 48 47 48 46 46 47 48
52 50 48 50 52 51 50 44 30 32 32 39 40 41 38 41 41 41 41 40 44 40 37 36 33 40 46 43 41 40 38 29 21 24 29 35 27 41 41 45 49 49 47 47 47
50 50 49 48 50 50 47 31 34 34 36 37 37 33 33 37 38 39 40 41 41 42 35 36 35 42 42 44 44 38 32 41 29 29 22 32 40 38 40 40 43 43 44 45 46
49 48 46 47 49 48 36 35 34 42 41 41 35 35 32 30 35 36 38 40 38 39 41 37 30 38 40 43 44 39 43 29 30 18 18 28 33 35 35 36 39 41 43 45 46
47 43 44 47 47 45 32 33 36 41 42 40 35 30 34 30 35 33 36 36 39 37 41 39 33 35 38 37 37 35 31 32 34 31 21 20 28 41 39 42 39 42 45 46 45
45 33 43 46 36 32 32 34 39 37 39 38 40 38 33 32 30 33 35 37 41 41 33 39 33 28 34 40 39 36 34 35 25 24 30 26 27 42 41 42 44 43 45 47 46
39 36 44 42 30 29 30 34 38 35 35 36 36 38 34 30 30 31 34 37 39 38 33 35 29 23 28 33 35 30 36 34 32 25 23 20 26 39 38 39 42 42 43 43 43
38 29 34 38 36 33 30 31 30 36 37 38 34 35 31 26 27 27 31 34 37 38 37 37 29 26 24 30 34 27 32 33 27 20 24 25 27 36 37 35 38 41 44 43 42
38 33 32 25 28 32 35 33 29 27 35 37 31 34 31 23 22 23 30 31 34 35 35 33 22 25 26 29 29 28 27 28 24 23 19 25 24 29 33 33 33 37 41 41 41
32 31 31 28 34 33 33 29 30 29 31 30 29 35 32 27 31 24 26 27 29 30 29 30 24 22 17 27 27 21 26 27 27 25 25 26 25 37 40 41 35 33 33 35 34
39 38 39 30 31 31 33 31 33 34 33 36 34 33 30 32 35 35 36 35 33 27 25 25 24 18 17 21 19 14 24 27 27 28 25 19 26 34 31 32 32 33 33 32 33
MSLP
1023.31 1023.03 1022.98 1022.75 1022.52 1022.21 1022.01 1021.89 1021.69 1021.43 1021.15 1021.14 1020.99 1020.82 1020.79 1020.62 1019.99 1019.13 1019.31 1020.03 1019.50 1019.17 1018.95 1017.99 1017.39 1016.94 1016.37 1016.14 1016.03 1015.61 1014.35 1013.58 1014.03 1014.29 1014.08 1014.68 1014.71 1014.44 1014.48 1014.22 1013.75 1013.48 1013.32 1013.20 1013.29
1023.31 1023.24 1022.89 1022.70 1022.44 1022.45 1022.08 1021.86 1021.50 1021.22 1020.97 1020.87 1021.00 1020.88 1020.70 1020.57 1019.56 1019.55 1020.52 1020.03 1019.60 1019.19 1018.17 1017.73 1017.19 1016.96 1016.03 1016.29 1016.17 1015.52 1014.56 1014.55 1015.25 1015.19 1015.13 1015.09 1015.03 1014.97 1014.86 1014.15 1013.71 1013.45 1013.44 1013.36 1013.48
1023.11 1023.03 1022.99 1022.77 1022.63 1022.38 1022.03 1021.72 1021.59 1021.40 1021.13 1020.85 1020.79 1020.79 1020.63 1020.47 1019.50 1020.13 1020.59 1020.24 1019.70 1019.19 1018.60 1018.28 1017.73 1017.12 1016.48 1016.52 1016.51 1016.13 1015.11 1015.74 1015.58 1015.87 1016.10 1015.85 1015.51 1015.26 1014.94 1014.51 1014.36 1014.85 1014.60 1014.44 1014.12
1023.46 1023.11 1023.08 1022.77 1022.45 1022.21 1021.97 1021.78 1021.63 1021.45 1021.29 1021.04 1020.84 1020.71 1020.43 1019.64 1019.83 1020.22 1020.53 1020.46 1020.17 1019.28 1018.58 1018.38 1018.03 1017.28 1016.94 1016.81 1017.05 1016.59 1016.59 1016.49 1016.36 1016.63 1016.75 1016.32 1015.86 1015.60 1015.11 1014.79 1015.54 1015.34 1015.27 1015.03 1014.80
1023.39 1023.26 1023.04 1022.76 1022.51 1022.12 1021.95 1021.81 1021.55 1021.44 1021.12 1020.96 1020.99 1020.99 1020.43 1019.38 1019.94 1020.08 1020.40 1020.22 1019.78 1019.41 1018.90 1018.35 1018.34 1017.86 1017.19 1017.27 1017.29 1016.95 1016.42 1016.75 1016.82 1016.91 1016.90 1016.72 1016.29 1015.86 1015.27 1015.27 1015.91 1015.61 1015.67 1015.62 1015.81
1023.60 1023.18 1023.03 1022.64 1022.38 1022.28 1021.99 1021.75 1021.56 1021.29 1021.09 1020.96 1021.05 1021.05 1020.25 1019.65 1020.62 1020.27 1020.31 1020.23 1019.94 1019.44 1019.08 1018.85 1018.67 1018.71 1017.96 1017.83 1017.81 1017.64 1017.50 1016.85 1016.65 1016.68 1016.74 1016.86 1016.21 1016.33 1015.41 1016.20 1016.09 1016.01 1015.84 1015.96 1016.05
1023.60 1023.31 1022.97 1022.78 1022.44 1022.35 1022.17 1021.73 1021.42 1021.16 1020.99 1021.09 1020.95 1020.71 1019.85 1020.66 1020.49 1020.23 1020.09 1020.45 1020.39 1019.78 1019.42 1019.60 1019.36 1019.06 1018.90 1018.47 1018.53 1018.08 1017.47 1016.71 1016.47 1016.55 1016.66 1017.04 1015.94 1015.68 1016.33 1016.56 1016.10 1016.16 1016.24 1016.37 1016.42
1023.53 1023.48 1022.84 1022.64 1022.56 1022.32 1022.06 1021.79 1021.72 1021.44 1021.12 1021.01 1021.06 1020.29 1020.29 1020.90 1020.56 1020.38 1020.18 1020.24 1020.50 1020.38 1019.91 1020.08 1019.78 1019.59 1019.35 1019.38 1018.72 1018.09 1017.43 1016.03 1015.93 1016.77 1016.75 1017.03 1015.20 1015.51 1016.70 1016.70 1016.31 1016.42 1016.55 1016.72 1016.85
1023.47 1023.20 1023.29 1022.57 1022.41 1022.37 1021.96 1021.65 1021.62 1021.45 1021.37 1021.16 1020.76 1020.14 1020.43 1020.92 1020.68 1020.57 1020.30 1020.24 1020.65 1020.64 1020.43 1020.23 1019.96 1019.72 1019.72 1018.97 1018.08 1017.67 1016.47 1015.81 1015.74 1016.68 1016.91 1016.86 1015.37 1015.52 1016.58 1016.86 1016.62 1016.70 1016.95 1017.25 1017.28
1023.42 1023.07 1022.87 1022.91 1022.42 1022.14 1022.01 1021.74 1021.48 1021.49 1021.23 1020.94 1020.76 1020.63 1021.13 1020.84 1021.07 1020.92 1020.70 1020.68 1020.57 1020.57 1020.40 1020.06 1019.78 1019.60 1019.15 1018.74 1017.32 1016.76 1016.74 1016.34 1016.43 1016.67 1016.98 1016.55 1015.66 1015.36 1015.72 1017.14 1016.95 1017.19 1017.48 1017.62 1018.00
1023.23 1023.13 1022.88 1022.70 1022.39 1022.29 1021.93 1021.68 1021.67 1021.36 1020.86 1021.22 1021.26 1020.99 1021.23 1021.45 1021.41 1021.16 1021.08 1020.72 1020.72 1020.64 1020.05 1020.27 1019.75 1018.90 1018.25 1018.33 1018.47 1018.31 1017.79 1017.09 1016.65 1016.89 1017.46 1016.39 1015.44 1015.16 1015.38 1016.77 1017.02 1017.48 1017.94 1018.20 1018.44
1023.00 1022.93 1022.72 1022.75 1022.28 1022.17 1021.73 1021.20 1022.01 1022.29 1021.79 1021.63 1021.44 1021.34 1021.47 1021.47 1021.29 1021.36 1021.37 1021.04 1020.76 1020.28 1020.59 1020.51 1019.54 1019.17 1019.66 1019.63 1019.43 1018.91 1018.21 1017.42 1017.03 1017.27 1017.83 1016.49 1015.22 1014.94 1014.91 1016.23 1017.24 1017.95 1018.47 1018.90 1019.10
1023.07 1022.91 1022.74 1022.63 1022.28 1021.93 1021.77 1022.45 1022.75 1022.27 1021.39 1021.94 1021.70 1021.43 1021.54 1021.64 1021.21 1021.34 1021.63 1021.20 1020.97 1020.61 1020.60 1020.19 1020.02 1020.33 1020.31 1020.11 1019.98 1019.39 1018.87 1018.34 1017.99 1017.92 1017.59 1017.01 1015.03 1013.79 1014.11 1016.22 1017.73 1018.58 1019.11 1019.52 1019.75
1022.85 1022.86 1022.71 1022.55 1022.64 1022.22 1022.24 1022.91 1022.81 1022.69 1021.62 1022.10 1021.69 1021.98 1021.87 1021.58 1021.60 1021.89 1021.92 1021.77 1021.52 1021.12 1021.02 1020.62 1020.59 1020.84 1020.73 1020.48 1020.23 1019.59 1019.05 1019.08 1019.05 1018.89 1017.73 1017.80 1015.35 1014.12 1014.23 1016.23 1017.53 1018.45 1019.03 1019.71 1020.08
1022.97 1022.82 1022.71 1022.55 1022.23 1021.95 1022.73 1022.96 1022.85 1022.72 1022.45 1022.33 1022.00 1022.18 1022.01 1021.74 1021.84 1022.15 1022.38 1022.01 1021.56 1021.43 1021.94 1020.80 1021.04 1021.02 1020.78 1020.39 1020.36 1019.82 1019.92 1019.73 1019.66 1019.31 1018.51 1017.45 1017.27 1014.18 1014.78 1015.67 1016.85 1018.13 1019.19 1020.00 1020.56
1022.76 1022.80 1022.76 1022.48 1022.15 1022.91 1022.91 1023.02 1022.82 1022.74 1022.05 1022.23 1022.20 1021.91 1022.03 1022.00 1021.94 1022.18 1022.10 1022.25 1022.36 1022.01 1021.68 1021.28 1021.62 1021.38 1020.75 1020.86 1020.91 1020.89 1020.72 1020.41 1020.27 1019.97 1018.69 1017.28 1016.73 1014.79 1014.76 1015.78 1016.15 1018.00 1019.36 1020.21 1020.76
1022.77 1022.86 1022.74 1022.64 1022.55 1023.05 1023.01 1022.54 1022.83 1022.34 1022.59 1022.47 1022.13 1022.16 1022.05 1022.13 1022.31 1022.16 1022.11 1022.07 1021.91 1022.04 1021.34 1021.20 1021.06 1021.14 1021.44 1021.18 1021.24 1021.41 1021.12 1020.64 1020.22 1020.19 1018.41 1017.89 1017.16 1015.74 1015.99 1016.74 1017.11 1018.30 1019.52 1020.40 1020.89
1022.82 1022.95 1023.20 1023.01 1023.17 1023.15 1022.96 1022.08 1022.41 1021.59 1022.12 1022.41 1022.26 1022.40 1022.25 1022.40 1022.47 1022.50 1022.28 1021.96 1022.13 1022.38 1021.87 1021.07 1020.84 1021.48 1021.48 1021.33 1021.06 1021.21 1021.55 1021.31 1020.28 1019.68 1018.87 1018.83 1017.64 1016.29 1017.72 1018.03 1018.16 1018.89 1019.88 1020.60 1020.96
1022.83 1022.88 1022.97 1023.28 1023.29 1023.28 1022.62 1022.35 1021.15 1021.19 1021.74 1022.12 1022.71 1022.69 1022.95 1023.14 1023.08 1022.89 1022.59 1022.17 1022.54 1022.82 1022.61 1021.88 1021.64 1022.06 1022.23 1022.09 1022.07 1021.59 1021.74 1021.96 1021.73 1021.22 1020.83 1018.63 1017.34 1018.15 1018.38 1018.93 1019.41 1019.95 1020.43 1020.57 1020.98
1022.32 1022.52 1022.93 1023.56 1023.45 1023.07 1022.78 1021.84 1021.46 1021.35 1021.69 1021.89 1021.83 1022.30 1022.81 1023.52 1023.41 1023.18 1022.71 1022.91 1023.24 1023.65 1023.68 1023.22 1022.78 1022.47 1022.72 1022.75 1022.44 1022.36 1022.47 1022.47 1022.51 1021.42 1019.84 1018.11 1017.31 1017.22 1018.13 1018.89 1019.69 1020.05 1020.17 1020.46 1020.94
1022.22 1022.23 1023.60 1023.77 1023.65 1022.84 1022.73 1022.09 1021.81 1021.93 1022.06 1021.97 1021.92 1022.60 1023.12 1023.62 1023.72 1023.68 1023.30 1023.82 1023.89 1024.23 1024.23 1023.92 1023.86 1023.02 1023.12 1022.56 1022.13 1022.68 1022.80 1022.99 1022.68 1021.92 1020.36 1018.77 1017.10 1017.70 1018.03 1018.37 1019.13 1019.57 1019.82 1020.26 1020.93
1021.69 1022.62 1023.84 1023.81 1023.61 1023.39 1022.78 1022.36 1022.26 1022.45 1022.80 1022.54 1022.40 1022.76 1023.43 1023.99 1024.24 1024.30 1023.95 1024.16 1024.63 1024.66 1024.62 1024.47 1024.54 1023.69 1022.92 1022.95 1023.28 1023.27 1022.96 1023.00 1022.86 1021.59 1020.55 1019.82 1017.52 1018.30 1018.62 1018.95 1019.08 1019.36 1019.68 1020.13 1020.85
1021.32 1022.85 1023.87 1023.79 1023.16 1023.09 1023.08 1022.63 1022.51 1022.80 1022.91 1023.05 1023.05 1023.31 1024.30 1024.62 1025.12 1025.04 1024.98 1025.50 1025.39 1025.26 1025.30 1025.46 1025.39 1024.67 1023.14 1023.80 1023.76 1023.81 1023.22 1023.49 1023.39 1023.49 1021.58 1020.65 1018.34 1019.32 1019.72 1019.58 1019.60 1019.66 1019.96 1020.52 1021.20
1020.84 1022.45 1023.69 1023.64 1023.11 1022.29 1022.40 1022.48 1022.79 1023.07 1023.00 1023.27 1023.75 1024.18 1024.83 1025.38 1025.96 1025.95 1025.84 1026.14 1026.19 1026.08 1026.33 1026.30 1026.14 1025.51 1024.56 1023.72 1023.97 1024.21 1023.94 1024.01 1024.30 1023.66 1021.95 1020.73 1019.55 1019.71 1019.77 1019.95 1020.07 1020.20 1020.34 1020.87 1021.52
1019.90 1020.51 1021.36 1022.47 1022.35 1022.15 1021.86 1021.94 1022.36 1022.97 1023.26 1023.40 1023.99 1024.00 1024.52 1025.64 1026.36 1026.32 1026.27 1026.71 1026.88 1026.87 1027.00 1027.17 1026.83 1026.34 1025.58 1025.22 1025.16 1024.76 1024.49 1024.09 1023.94 1023.46 1023.33 1020.83 1020.66 1019.69 1020.02 1020.37 1020.66 1020.77 1020.77 1020.99 1021.50
1019.02 1020.01 1021.24 1021.49 1021.16 1021.85 1021.86 1021.86 1021.81 1022.49 1022.80 1023.16 1023.49 1023.49 1024.32 1024.87 1024.86 1025.42 1026.09 1026.69 1026.64 1027.64 1027.96 1028.12 1027.29 1027.24 1026.23 1026.10 1025.74 1024.91 1024.27 1024.03 1023.44 1022.97 1022.55 1021.69 1020.18 1020.20 1020.15 1020.16 1020.66 1021.23 1021.62 1021.78 1022.20
1018.28 1019.31 1019.12 1020.96 1021.02 1021.24 1020.63 1021.07 1021.24 1021.80 1022.95 1022.80 1023.03 1023.76 1024.63 1024.77 1025.19 1025.58 1026.10 1026.47 1026.91 1027.52 1028.03 1028.34 1028.07 1028.28 1026.74 1026.93 1026.43 1024.84 1023.34 1022.73 1022.36 1022.25 1022.51 1021.60 1019.99 1020.62 1020.49 1020.79 1021.15 1021.43 1021.99 1022.35 1022.65
Wind_Speed
6 6 7 8 9 10 9 9 10 10 11 11 11 11 11 13 13 4 8 9 8 10 10 5 3 1 1 3 1 3 5 3 3 4 5 2 6 8 8 12 10 5 10 11 12
6 7 8 9 8 9 9 10 10 9 9 9 9 8 8 10 1 10 7 9 7 8 3 3 1 2 3 2 0 6 3 4 4 5 7 7 7 10 9 11 12 10 13 13 13
5 6 6 7 9 9 11 11 11 10 9 7 6 6 6 7 3 5 11 10 8 8 3 3 2 3 1 2 1 0 3 3 2 4 7 9 9 4 8 9 11 13 16 16 14
4 5 7 8 8 10 11 10 10 9 10 8 6 4 5 3 1 4 10 11 9 6 2 1 3 2 2 2 0 6 2 4 3 2 6 10 11 11 12 8 8 10 12 12 13
4 5 7 8 9 10 9 8 7 8 8 7 5 6 6 4 5 4 6 6 5 3 4 2 3 2 2 1 4 7 3 4 6 7 10 12 14 13 12 3 9 7 7 9 10
4 5 6 7 8 10 7 7 6 6 7 4 3 5 5 3 3 4 5 3 5 2 2 2 1 3 0 2 5 3 8 10 7 8 8 9 12 2 2 7 10 7 7 8 8
4 5 7 8 10 9 8 6 4 5 4 1 0 4 2 6 1 3 3 3 5 2 2 3 2 4 1 2 2 5 8 8 9 5 4 6 13 10 4 7 8 7 9 8 8
5 6 6 8 10 8 7 7 5 5 3 3 3 4 4 1 3 3 1 4 3 4 5 3 3 1 4 2 4 6 5 6 9 4 5 3 14 8 3 7 9 8 8 9 9
3 6 9 9 9 9 8 3 2 2 1 3 4 5 5 3 2 3 3 2 1 3 4 3 1 2 3 6 7 7 9 7 5 4 4 8 11 6 1 7 9 8 8 8 9
3 5 8 11 10 9 6 3 2 4 3 2 0 3 3 3 2 2 3 1 0 2 3 2 3 6 6 7 5 9 7 6 9 5 7 13 19 16 3 7 8 6 7 7 9
3 5 7 8 9 7 3 4 5 4 5 5 5 3 4 3 1 2 1 3 2 4 5 1 5 8 7 7 9 9 11 14 13 6 7 15 18 15 10 7 7 5 5 6 7
1 4 6 8 5 4 4 3 3 4 5 3 2 3 2 2 2 3 2 3 3 6 2 5 9 3 2 4 6 9 12 15 12 7 6 14 18 17 14 11 6 5 2 4 6
2 3 7 8 1 1 2 3 2 2 1 3 2 2 2 2 0 4 2 1 4 5 7 10 4 3 3 5 7 11 13 14 15 12 14 15 18 20 13 4 5 4 1 2 5
4 3 6 7 4 2 2 2 1 3 3 5 3 3 2 1 3 2 2 3 3 5 4 8 3 6 8 11 9 11 5 10 11 9 6 1 10 14 9 10 10 6 5 2 4
5 0 3 5 5 3 4 3 1 4 5 5 4 2 1 3 3 4 2 2 6 3 3 3 3 5 6 6 5 3 3 4 8 12 14 13 8 6 3 12 12 9 5 3 4
5 1 1 2 2 3 4 3 3 2 6 4 2 4 5 2 3 3 2 2 2 4 7 13 1 4 9 3 7 3 4 6 5 7 8 15 14 9 6 3 8 10 7 5 4
6 3 1 0 3 5 4 3 2 4 1 4 4 5 5 4 4 4 5 6 4 3 4 3 10 3 5 8 3 6 6 4 5 5 7 6 8 14 6 4 4 10 9 7 4
8 5 3 3 2 4 4 2 4 2 2 1 3 5 5 6 3 4 3 6 8 4 4 5 4 5 6 9 6 7 8 5 7 9 12 4 7 3 5 3 2 9 9 7 5
11 3 3 3 1 2 4 2 4 3 7 11 5 4 5 4 2 5 6 4 2 8 6 3 3 3 2 2 3 3 6 6 11 10 7 11 17 4 4 3 5 7 9 9 7
5 5 4 2 2 4 2 4 3 3 6 6 6 4 6 6 7 7 7 2 3 2 0 3 6 2 3 2 6 6 5 4 4 7 16 14 17 13 7 8 9 11 11 10 7
5 4 3 1 3 3 4 4 3 3 3 6 4 5 2 6 7 5 2 3 1 4 4 1 2 2 1 7 8 5 5 7 8 9 14 17 13 3 1 7 12 13 13 11 8
4 4 2 2 4 1 4 4 2 6 2 2 1 3 5 7 6 5 5 0 3 6 4 2 2 6 11 3 3 4 8 12 11 17 15 14 16 5 1 5 9 12 11 10 8
6 3 2 3 5 5 1 3 3 5 5 4 4 2 2 4 3 3 3 2 4 5 5 4 4 5 4 4 4 6 9 12 8 4 18 16 17 7 3 4 7 9 9 8 9
5 5 2 3 2 3 6 5 6 1 4 3 4 4 4 2 2 3 6 3 2 4 3 2 4 8 12 17 9 8 10 10 9 9 15 17 22 15 9 6 6 7 10 11 11
3 3 2 8 9 5 5 8 7 7 3 6 3 7 6 4 2 5 4 4 4 3 3 3 6 6 12 18 16 18 19 20 18 18 15 23 19 16 9 5 5 7 9 10 10
7 6 2 3 7 15 9 9 11 5 10 6 5 11 9 6 6 7 7 4 5 4 6 4 4 1 7 12 11 18 21 21 24 23 22 26 30 18 19 15 10 7 4 7 3
4 1 2 8 7 11 8 8 11 12 6 2 8 7 10 8 4 4 3 3 4 8 10 6 4 2 9 5 8 12 14 19 19 18 13 19 25 16 13 12 5 4 5 7 5
Wind_Direction
38 36 19 18 15 12 8 0 2 2 358 351 350 349 346 340 308 225 51 351 329 327 306 297 273 332 238 81 334 275 247 270 335 305 16 68 331 316 331 280 300 303 300 321 326
39 22 19 16 15 3 2 1 6 6 357 1 355 348 340 334 314 61 3 345 349 332 288 295 177 271 134 109 214 270 267 35 6 336 310 317 313 312 305 310 296 324 324 326 331
44 26 15 13 6 359 3 5 359 1 358 359 355 343 329 314 196 41 358 337 335 312 353 313 276 271 176 241 128 113 297 40 300 335 318 303 292 331 293 295 354 325 320 325 316
28 25 16 6 2 1 4 2 354 352 339 340 338 324 313 228 105 30 343 332 319 313 279 324 265 230 249 217 329 262 301 298 319 6 300 290 308 287 280 291 344 326 342 335 343
31 9 11 1 357 1 2 356 358 341 337 342 332 319 266 149 88 19 331 342 299 325 27 35 282 300 237 224 236 249 266 275 274 278 277 286 276 272 275 331 314 330 334 350 343
11 6 360 352 355 355 355 352 347 339 337 339 312 296 256 157 356 5 352 323 8 326 62 357 348 321 225 263 262 6 289 277 276 274 270 275 281 295 159 334 293 314 322 336 343
351 348 351 349 352 347 337 338 328 343 22 60 66 287 23 75 343 27 73 28 358 355 95 52 359 271 328 248 319 288 286 273 243 241 269 287 261 230 4 314 291 304 314 326 331
334 338 348 347 346 340 330 330 312 340 83 96 306 263 74 46 12 68 94 78 50 39 79 29 3 46 311 336 240 262 256 264 129 227 171 246 280 138 328 313 303 314 319 321 327
348 339 337 344 341 330 328 316 288 318 119 285 252 285 116 150 161 41 19 84 87 55 59 64 10 307 211 242 251 204 275 230 261 182 292 226 285 133 211 304 300 315 325 328 332
320 339 339 336 338 333 329 276 122 200 218 267 259 209 174 108 60 41 68 72 276 152 164 196 208 243 225 228 264 307 245 248 266 146 250 267 267 271 246 291 291 308 322 335 341
300 326 335 336 338 343 229 174 186 152 56 36 40 70 101 82 209 90 29 156 203 242 244 141 239 232 264 247 315 294 284 279 281 288 294 268 275 282 268 252 260 286 321 343 357
239 304 333 335 346 335 265 257 31 13 114 59 68 98 70 348 162 128 248 238 231 247 209 213 246 12 347 285 264 263 270 271 284 291 267 282 280 277 260 234 263 278 301 358 3
244 301 333 337 239 227 73 83 327 289 240 100 78 134 92 265 279 140 256 33 267 241 235 265 29 69 231 243 259 256 268 280 283 301 269 272 278 258 233 189 206 214 203 37 28
238 302 341 341 217 133 101 122 258 310 228 145 167 99 179 210 173 53 19 314 223 282 269 270 53 253 265 266 270 284 316 269 278 287 279 149 290 290 198 203 209 194 193 107 51
251 248 31 352 110 175 96 166 186 247 276 96 127 42 143 239 113 113 37 195 268 248 246 68 211 224 248 255 227 291 348 286 279 278 290 265 248 275 226 215 204 194 172 131 70
192 138 162 177 111 88 144 158 228 65 244 140 125 159 171 169 126 126 174 196 350 270 243 270 100 264 247 311 251 8 281 263 267 276 257 256 235 277 296 286 207 169 180 153 103
175 92 291 1 102 152 167 201 62 204 35 172 170 183 206 155 164 202 195 196 225 243 225 214 217 209 251 252 187 228 264 281 238 216 256 26 289 250 320 18 314 176 173 154 139
144 143 63 51 130 168 215 142 210 80 184 134 141 155 192 159 180 183 214 248 207 237 289 279 231 202 157 244 332 215 219 262 287 293 314 109 251 299 22 350 251 158 157 153 155
147 134 144 59 165 218 221 161 217 167 147 159 127 173 190 192 257 201 223 268 1 208 238 275 230 114 27 337 278 101 223 286 284 263 270 263 274 188 93 118 155 168 182 177 165
169 171 128 348 247 228 89 243 175 125 142 176 194 201 180 177 189 202 200 105 172 259 255 65 282 70 74 246 223 245 11 248 201 269 271 274 278 271 183 200 203 198 202 187 177
173 178 83 306 258 187 207 223 180 170 186 196 192 136 180 170 204 203 175 124 193 151 214 242 252 152 185 206 270 196 230 224 281 264 276 281 270 49 289 217 209 213 209 197 190
174 168 67 260 152 149 200 187 126 162 186 145 139 115 174 164 177 222 219 332 185 174 181 152 254 265 275 65 313 285 279 267 248 264 250 260 270 151 197 282 233 217 213 203 198
147 109 87 290 188 201 142 155 193 156 187 174 159 96 89 154 205 205 202 138 192 201 172 184 197 288 248 224 213 246 242 240 273 289 261 266 274 104 286 275 257 240 215 198 214
149 133 131 228 299 206 157 180 172 136 150 142 116 107 127 127 80 189 211 157 196 231 80 159 214 240 265 285 333 274 263 253 231 260 270 258 274 276 237 241 245 242 231 216 219
188 163 175 180 219 197 201 156 149 167 191 172 147 206 161 144 164 217 183 166 194 181 177 234 243 228 258 274 286 278 273 266 253 246 254 270 273 268 285 263 240 250 246 225 225
148 159 152 110 152 178 192 201 175 159 160 189 204 189 180 173 195 185 152 195 192 168 187 188 259 334 278 270 274 275 267 267 259 255 258 260 265 270 278 273 239 227 257 260 249
121 79 175 156 154 173 206 178 194 144 213 107 192 143 196 218 110 66 90 106 151 172 189 179 218 189 269 25 307 272 264 258 255 249 251 258 263 299 286 282 301 260 241 245 234